Theta_e
321 321 322 323 324 324 324 325 326 327 327 328 328 328 327 328 327 327 327 328 328 328 328 327 329 329 329 329 328 326 322 318 312 310 308 311 317 328 331 332 333 334 327 316 311 310 308 307 309 310 313 314 310 311 310 310 307 311 304 302 299 301 299 303 301 302 302 301 302 298 300 301 300 297 298 297 297 299 297 298 300 299 298 298 298 297 300 301
321 321 322 322 323 323 323 324 324 326 326 327 328 328 327 328 327 327 327 327 327 327 328 328 328 329 329 327 327 322 320 318 313 309 309 321 328 328 332 333 333 334 327 313 310 310 309 306 308 310 311 309 310 308 308 308 308 306 302 301 299 302 303 303 303 304 301 302 301 301 300 300 302 301 298 298 299 297 297 298 299 299 300 298 296 297 298 300
321 321 321 322 322 322 323 323 324 324 325 326 327 327 327 325 326 327 327 327 327 327 328 328 328 328 328 328 325 320 319 318 311 310 310 324 326 331 332 332 333 332 319 312 312 308 308 308 309 310 308 307 307 307 308 305 308 304 303 300 301 305 303 301 301 302 302 301 300 299 299 298 300 301 299 298 301 297 298 300 298 298 300 299 296 297 298 299
320 321 321 321 321 322 322 323 324 324 325 326 326 326 326 326 326 326 327 326 327 327 327 328 328 328 327 326 324 326 317 313 307 309 311 321 328 330 331 331 328 329 314 311 310 309 307 308 308 309 307 306 306 305 304 304 304 304 301 301 302 301 301 303 301 302 301 299 300 300 297 296 300 300 299 299 298 299 300 303 303 301 301 303 297 297 298 298
320 320 320 320 321 321 322 323 323 324 325 325 326 326 326 326 326 326 327 326 326 326 328 327 328 328 326 325 318 325 316 304 307 310 315 324 328 329 329 329 322 316 315 308 308 307 308 307 306 307 307 304 304 304 303 303 303 303 301 302 301 299 300 301 301 299 299 296 299 298 297 299 299 297 298 299 298 300 304 304 304 305 306 302 297 297 297 297
320 320 320 320 321 321 322 323 322 323 324 325 325 325 325 326 326 325 326 326 326 326 327 327 328 326 326 323 320 319 310 297 309 312 323 323 327 326 326 325 317 309 309 307 307 306 307 306 307 305 304 303 303 302 302 301 300 301 301 299 299 301 300 300 299 297 297 297 298 297 300 298 298 299 299 299 300 303 300 300 302 303 304 303 300 298 297 297
319 319 320 320 320 320 321 322 322 322 323 324 324 325 325 325 325 325 326 326 325 326 326 328 327 326 324 321 320 314 308 310 308 316 319 323 322 322 325 320 317 312 309 307 307 309 307 306 306 304 304 302 300 300 300 300 299 299 301 299 300 299 299 299 299 295 297 298 299 299 297 298 298 297 299 297 301 304 300 298 297 296 298 300 298 297 297 297
319 319 319 319 319 320 320 321 321 322 322 323 324 324 325 325 325 325 325 326 325 325 327 326 326 324 322 319 313 309 308 308 310 312 315 319 312 318 314 311 311 313 308 306 308 308 308 306 305 302 303 302 302 301 300 298 298 299 299 299 299 296 299 299 297 296 296 297 296 295 297 299 299 299 294 296 301 302 302 297 296 296 297 298 299 297 298 298
319 319 319 319 319 319 319 320 321 321 322 322 323 323 324 325 325 324 325 325 325 325 327 326 325 323 320 316 311 307 306 318 309 311 313 311 308 310 311 311 308 309 306 305 303 309 309 306 303 304 303 300 300 301 297 298 300 300 300 299 299 299 300 298 297 297 296 298 296 296 297 299 296 297 295 299 302 303 303 298 297 296 297 297 298 297 297 297
319 319 319 319 318 319 319 320 320 320 321 322 323 323 324 324 324 324 324 325 324 325 325 321 324 321 318 316 311 302 311 307 311 311 307 308 307 311 312 311 308 308 308 305 305 308 308 307 306 306 305 301 300 300 297 298 299 298 299 299 299 299 297 298 298 298 294 297 296 297 299 299 294 296 298 302 296 297 298 298 295 296 297 297 297 297 297 297
319 318 319 318 318 318 319 319 319 319 321 321 322 323 323 324 324 324 324 324 323 325 326 323 324 322 317 311 308 303 311 312 310 312 307 309 313 310 312 310 306 308 308 307 307 306 308 308 307 304 305 302 300 298 297 298 298 297 297 297 297 297 297 297 295 296 296 298 296 297 297 297 295 296 297 300 293 296 297 296 295 295 297 297 297 296 297 297
319 318 318 318 318 318 319 319 319 319 320 321 321 322 323 323 323 323 323 323 323 326 325 319 320 315 311 311 307 309 307 311 312 312 311 314 311 309 310 306 305 314 308 307 309 311 309 309 308 303 302 302 300 297 297 298 297 295 295 297 298 298 298 298 297 297 295 297 295 297 295 293 294 294 300 299 293 295 296 296 295 295 296 297 297 296 296 296
318 318 318 318 317 318 318 318 319 319 319 320 321 321 322 323 322 322 323 322 323 325 323 321 315 314 314 304 308 310 309 311 311 310 310 312 309 308 307 307 306 304 308 308 308 310 307 307 307 304 302 302 300 298 298 298 295 295 297 296 296 298 298 296 295 294 295 297 295 296 293 298 296 299 302 294 295 293 294 296 295 295 295 295 295 294 295 295
318 318 318 317 317 318 318 318 318 319 319 320 321 322 321 322 322 322 322 322 326 326 325 317 322 315 309 305 308 308 309 310 308 312 311 309 309 311 311 310 309 308 311 308 306 306 306 303 306 303 303 300 299 299 297 296 295 296 295 295 296 295 296 295 296 295 296 295 294 296 293 296 301 300 303 296 295 295 296 297 297 295 294 294 294 294 294 294
318 318 318 317 317 317 317 317 318 317 318 319 321 320 321 320 321 321 322 324 324 325 321 320 319 313 304 306 308 308 315 308 308 312 310 308 308 308 308 309 307 306 306 307 307 304 303 307 306 303 300 296 298 298 297 298 296 296 294 295 295 294 297 296 295 295 297 294 294 296 293 295 300 302 299 294 294 294 295 298 298 296 295 294 294 293 293 294
318 318 317 317 317 317 317 316 316 317 318 319 320 320 319 320 319 321 323 323 323 321 322 318 313 313 305 302 308 318 309 307 307 310 308 307 313 308 310 307 307 307 307 305 305 304 305 307 302 299 298 296 297 298 298 298 298 295 294 295 295 295 296 295 295 294 293 295 295 296 294 297 298 298 293 290 293 293 294 296 297 297 295 295 294 293 293 293
318 318 318 317 317 317 317 317 316 317 318 318 319 320 320 319 321 323 324 320 319 318 318 311 310 307 300 307 310 305 306 308 307 311 308 305 305 309 308 307 305 305 307 305 307 307 305 304 298 299 298 299 297 299 295 295 295 296 295 294 298 293 295 293 294 292 294 294 294 295 292 295 298 300 295 290 293 293 293 296 297 297 296 295 295 294 293 293
318 318 318 317 317 317 317 316 317 317 318 318 318 319 318 319 323 320 318 317 316 315 312 310 313 305 302 302 301 304 305 306 311 307 307 304 306 305 306 305 300 304 306 304 305 304 303 301 300 300 300 296 295 297 293 290 296 296 295 293 294 294 293 294 294 293 292 292 292 294 293 294 297 298 300 299 293 295 296 297 298 298 297 296 295 294 293 293
319 318 318 318 317 317 316 316 317 317 318 318 319 317 316 316 312 312 307 307 309 304 300 303 301 297 297 301 304 303 307 307 306 307 305 307 306 305 304 304 306 303 302 300 301 302 303 303 301 299 295 296 295 297 296 298 297 295 295 295 294 293 294 294 295 292 293 292 292 293 292 294 296 297 299 300 296 295 296 298 298 298 298 297 296 295 293 293
319 319 318 318 317 316 316 317 316 317 318 316 313 312 313 308 307 301 303 302 303 304 303 304 305 301 303 301 305 305 307 307 305 305 306 305 305 304 303 304 306 304 301 299 302 301 301 298 296 296 298 299 299 298 299 298 296 295 296 295 294 295 295 297 293 291 289 290 291 293 294 294 294 296 297 298 298 296 295 295 296 297 297 296 296 295 294 293
319 319 317 318 317 317 316 316 316 316 317 314 310 304 300 298 295 297 299 301 305 298 300 301 302 303 303 304 306 305 304 303 302 305 306 307 305 303 301 302 301 298 300 299 303 298 299 296 297 299 300 299 299 298 295 293 293 294 295 294 294 295 292 295 292 289 291 290 292 294 292 292 294 295 296 297 296 296 297 297 297 298 298 298 297 296 295 294
319 318 318 317 317 317 316 316 316 316 315 310 305 304 300 300 302 301 299 298 308 303 298 300 298 299 301 301 305 306 305 302 301 304 306 305 302 301 301 300 298 297 297 297 298 297 296 294 298 300 299 295 292 293 293 294 293 292 293 294 292 293 295 295 290 289 290 289 290 293 290 292 294 296 297 297 297 298 299 299 299 299 300 300 299 298 296 295
318 318 318 318 317 317 316 316 316 315 312 310 307 302 302 304 305 305 304 303 299 304 301 300 299 299 301 302 304 303 301 298 298 303 303 304 299 300 300 297 297 297 295 298 295 296 291 297 300 295 295 294 290 289 291 292 293 293 292 291 291 295 291 292 291 289 290 290 291 291 289 291 294 296 296 298 297 298 299 299 300 301 299 299 300 299 296 295
318 318 317 317 317 316 317 317 316 310 305 302 304 302 304 302 304 307 305 298 297 300 300 303 301 302 301 301 304 303 300 299 299 299 304 303 301 302 299 299 296 295 295 296 297 296 295 297 287 292 295 296 293 289 291 291 292 293 294 294 293 294 293 291 292 289 290 289 287 289 290 292 295 294 296 296 293 291 293 294 296 298 300 301 301 299 298 297
318 318 317 317 317 317 316 316 309 306 305 305 303 303 303 301 302 302 303 299 295 298 304 301 303 305 303 306 303 301 301 298 300 300 302 303 299 297 298 298 298 295 296 296 296 296 296 295 291 291 293 293 294 289 291 294 292 293 293 294 295 295 293 291 289 290 291 291 289 289 286 289 296 295 294 297 294 294 294 292 294 297 298 298 296 297 298 298
318 317 317 317 317 317 317 310 307 308 305 305 302 302 301 302 302 302 299 294 290 297 298 297 306 300 311 301 305 303 300 298 298 299 300 302 304 301 297 297 297 295 295 295 295 297 297 288 293 295 293 293 294 294 294 294 293 291 293 294 294 293 292 290 289 289 288 287 290 289 286 284 292 292 294 295 294 295 297 295 296 297 300 299 297 297 297 297
318 318 317 317 317 316 309 302 309 309 305 304 303 301 301 303 304 305 292 290 285 298 295 300 299 302 307 300 301 300 292 297 296 298 299 301 301 305 297 297 294 293 294 297 293 293 291 289 290 293 294 294 293 291 295 292 293 291 290 289 290 291 290 290 290 290 290 290 290 289 291 285 285 291 295 296 293 295 297 298 300 301 301 301 299 297 298 298
318 318 317 317 316 315 310 310 309 305 302 305 304 302 301 303 305 304 292 281 281 304 298 296 301 307 305 300 300 296 295 293 296 297 296 298 299 299 297 296 296 295 292 294 290 296 292 289 291 291 292 292 292 295 294 295 294 292 287 290 290 290 291 290 290 290 288 285 285 288 291 285 285 290 294 294 292 293 295 297 299 301 302 300 300 298 298 298
318 318 317 317 314 312 314 311 308 306 305 304 303 303 303 303 301 296 289 280 299 298 309 297 307 302 298 299 298 295 295 296 295 295 298 298 299 298 295 296 295 294 291 295 295 295 291 293 294 296 293 292 292 285 290 295 293 288 287 288 288 289 288 289 289 288 287 284 282 287 289 284 285 289 289 288 291 293 295 297 299 300 302 302 299 298 297 296
318 317 317 315 313 312 310 307 309 307 304 302 301 303 305 304 296 289 283 277 299 292 297 299 298 297 298 296 295 295 293 294 292 295 296 297 297 299 292 294 295 294 294 292 292 294 290 289 290 292 294 294 287 286 286 288 288 289 291 292 290 289 288 287 287 287 286 281 284 289 289 288 283 290 290 287 291 293 297 298 299 301 301 300 299 298 297 295
318 317 316 315 311 312 310 306 307 304 304 303 304 305 303 299 291 286 279 289 294 295 297 296 295 299 295 294 294 294 295 293 293 293 293 295 294 295 295 294 299 295 290 292 291 294 290 289 291 293 289 287 290 288 288 286 288 291 290 290 291 288 287 286 286 286 282 282 288 288 289 289 281 288 291 295 296 297 298 297 297 299 299 301 301 298 296 295
317 317 317 315 315 313 306 306 307 305 303 305 304 302 297 288 290 281 283 292 289 294 297 296 294 296 295 297 296 292 294 292 293 292 293 292 292 292 292 294 293 289 288 289 290 290 289 290 293 291 290 291 292 292 287 289 287 290 291 290 286 286 285 283 283 279 280 282 284 282 287 285 284 289 294 294 294 295 298 299 299 300 301 302 302 299 296 294
317 316 315 315 311 311 311 308 306 305 306 304 302 298 291 287 280 287 286 291 290 298 293 299 295 293 295 294 294 293 293 294 293 291 294 291 292 294 296 295 297 295 290 292 290 289 292 289 290 293 291 291 296 291 289 287 287 288 288 288 286 282 281 278 283 282 282 286 284 283 286 282 289 291 295 294 296 297 297 297 300 301 301 302 302 298 293 291
317 317 314 313 313 314 310 307 307 307 306 304 298 293 289 280 282 293 291 290 293 290 293 293 290 294 293 294 295 295 292 295 291 291 292 291 290 291 292 294 292 292 292 289 288 288 287 288 289 290 291 294 293 295 296 294 287 288 293 291 288 287 283 279 282 280 282 285 282 284 282 283 284 289 295 297 298 298 298 298 298 297 298 295 291 291 291 290
317 317 317 313 312 311 308 308 307 308 306 300 294 290 283 282 288 286 288 292 290 292 292 291 294 292 292 292 292 292 296 294 292 290 290 290 289 290 291 292 292 294 294 288 291 286 289 290 294 294 290 292 292 295 294 292 289 290 292 292 287 286 291 284 285 283 283 283 283 280 283 290 290 292 293 292 296 297 298 297 296 295 295 294 291 291 291 290
315 315 315 309 309 310 307 308 308 306 304 298 291 285 284 287 287 291 291 295 291 295 291 292 293 291 291 291 292 293 296 294 292 292 291 290 294 291 293 294 292 293 292 289 292 286 286 287 289 289 288 290 290 289 292 294 287 288 288 285 289 292 291 286 282 280 279 281 280 287 285 289 293 293 293 294 292 295 295 296 296 295 296 295 293 293 293 292
312 313 307 308 309 310 309 308 307 307 300 295 289 284 290 289 294 294 295 291 292 296 293 290 290 289 289 289 292 291 293 293 291 291 291 292 289 292 290 294 296 294 296 296 288 293 288 291 285 290 288 287 283 285 289 289 291 288 284 289 290 293 293 287 282 283 282 279 282 285 283 286 287 284 290 292 291 292 293 293 294 294 295 293 294 294 293 292
311 309 310 308 310 309 309 308 308 305 299 292 287 290 293 291 293 292 293 292 290 296 294 290 292 295 290 291 289 290 293 292 291 290 291 291 290 298 293 293 296 295 295 297 292 290 292 285 289 284 284 286 285 288 289 290 288 289 287 293 288 284 283 286 283 277 278 277 280 285 286 287 288 288 287 288 289 291 292 293 292 292 292 292 293 293 292 292
311 307 302 309 311 309 307 309 308 301 293 287 286 287 293 294 291 290 293 294 295 295 290 292 291 293 293 289 290 290 292 288 291 289 288 291 288 295 294 297 294 295 295 295 291 291 294 287 287 283 285 286 287 289 284 287 288 289 288 288 289 287 287 283 285 285 285 280 280 281 285 283 293 292 293 292 291 292 292 291 292 292 293 292 292 292 292 292
306 300 300 309 310 309 309 308 303 299 292 285 287 288 295 291 293 294 293 293 293 292 292 291 293 289 291 292 293 291 292 293 291 291 291 293 291 294 293 297 298 294 294 295 293 297 290 291 285 284 284 287 284 286 286 289 284 284 285 286 286 286 287 288 286 283 284 282 281 280 280 285 292 294 294 294 293 293 293 292 293 294 294 294 293 292 292 292
308 301 300 309 309 310 309 304 296 291 289 292 294 292 293 291 293 293 295 292 294 293 291 293 292 289 290 289 288 291 291 290 290 289 290 291 290 289 295 296 297 292 293 293 293 293 288 286 285 283 281 283 288 292 291 293 292 289 287 285 287 284 283 280 280 285 282 283 279 280 278 286 294 292 294 294 294 296 295 295 295 294 293 293 293 292 292 292
303 294 300 308 309 310 303 292 292 295 291 289 289 293 291 297 293 293 294 293 290 290 289 289 290 291 292 291 293 290 289 288 289 289 291 290 293 292 296 298 297 295 292 288 291 295 292 287 286 284 286 288 290 288 282 287 290 291 290 289 291 289 289 285 279 282 278 282 284 283 280 283 295 296 294 295 294 294 296 295 294 294 293 293 292 292 292 292
301 298 305 307 310 308 299 290 291 290 288 292 298 296 296 294 292 294 292 293 290 290 288 290 291 290 291 290 290 290 290 289 291 289 291 291 293 295 296 296 297 296 299 293 294 293 294 288 285 286 289 290 280 284 285 284 290 287 288 290 289 286 288 287 287 286 284 284 281 281 277 283 294 295 294 292 294 294 293 294 295 293 294 294 294 292 291 290
302 298 298 306 310 307 296 285 285 286 289 294 294 294 298 295 294 292 292 292 289 287 288 289 288 291 289 290 289 287 291 285 291 290 289 293 292 295 294 296 295 294 294 292 292 294 287 286 286 283 283 285 288 285 284 285 287 287 287 288 289 290 290 288 284 284 281 284 284 282 276 283 293 291 293 292 290 291 291 290 291 294 293 293 292 291 290 289
301 300 298 300 306 304 293 295 292 289 288 290 291 290 292 294 296 295 294 292 292 290 290 289 290 292 289 289 289 289 291 289 287 292 292 292 293 290 292 295 295 294 295 297 294 296 288 287 285 280 278 277 277 279 282 281 282 285 286 286 288 288 287 285 281 283 279 283 285 282 282 288 294 294 292 290 289 290 288 288 287 289 292 292 291 290 290 289
297 291 296 295 300 298 298 300 296 294 290 289 289 291 293 290 295 297 297 295 295 293 292 292 290 289 290 290 287 288 288 292 288 286 286 288 290 288 286 288 293 296 294 293 293 293 286 287 288 286 284 282 285 288 289 288 285 282 283 285 285 287 289 288 287 284 281 284 283 285 285 287 289 291 292 294 292 290 289 289 288 287 286 287 289 290 290 290
301 296 291 287 296 295 293 296 294 295 290 293 286 291 289 291 293 293 298 292 297 295 292 290 290 288 287 288 287 287 289 288 288 287 287 288 288 287 287 287 290 289 289 291 292 290 284 284 287 288 288 288 290 290 292 291 286 286 285 283 286 286 285 284 283 282 288 283 280 287 288 285 287 290 292 293 294 294 294 294 292 289 289 289 288 288 289 289
295 298 300 298 294 287 289 289 294 293 295 293 289 294 291 291 291 289 294 296 297 296 292 290 291 291 291 290 290 285 288 287 287 285 288 288 288 288 287 288 287 290 290 289 289 288 285 284 287 287 287 290 291 291 291 290 289 288 287 286 284 286 285 282 283 287 288 283 281 287 288 286 289 291 293 293 294 294 295 295 295 295 293 292 291 290 290 289
304 300 300 302 296 296 293 293 294 292 292 293 291 293 290 292 291 294 294 291 293 290 294 287 289 291 292 292 289 287 288 284 284 287 286 287 287 287 285 287 289 287 289 286 288 287 285 285 288 288 286 287 289 290 291 289 288 287 286 286 287 286 285 285 285 287 287 286 288 288 288 288 291 292 293 295 296 296 296 295 295 292 291 292 293 293 292 291
296 298 294 300 298 298 296 295 294 293 290 292 289 290 292 292 291 294 295 293 289 291 295 290 291 293 292 291 290 287 288 289 289 287 289 287 287 287 286 287 287 285 287 286 287 287 287 283 289 287 284 285 287 288 289 288 287 285 287 287 288 288 288 288 287 286 287 286 287 287 287 286 292 294 294 296 296 295 294 294 294 294 294 294 294 293 293 292
301 303 302 296 291 293 295 294 293 292 289 290 289 290 293 292 292 295 294 298 294 291 291 289 292 292 293 291 290 290 292 292 292 291 292 290 286 290 287 287 291 285 285 285 286 285 286 284 287 285 282 281 286 286 287 287 286 285 284 286 287 287 285 287 286 288 286 284 286 285 283 284 290 293 294 294 293 293 292 293 293 294 294 294 294 294 294 294
303 304 302 297 289 295 292 293 293 291 286 290 291 290 292 292 295 295 291 297 297 297 296 294 293 293 291 291 289 291 294 295 294 295 295 295 296 293 294 293 293 288 286 285 288 285 285 285 283 283 280 279 285 286 285 286 284 280 281 285 287 288 289 289 290 290 289 289 285 283 284 290 292 293 292 292 293 293 293 293 293 294 294 294 294 294 294 295
Wind_Speed
18 17 16 17 17 16 16 17 16 15 15 14 14 15 15 15 15 13 12 10 11 9 8 6 5 5 5 5 5 6 5 3 1 1 4 1 2 1 3 4 5 4 3 2 3 6 4 2 4 2 4 4 2 2 1 1 1 2 4 3 6 2 4 4 6 7 3 2 5 8 10 9 8 6 4 4 5 7 2 8 6 6 7 2 3 1 4 13
17 18 16 16 16 17 17 16 17 16 15 15 14 14 15 14 16 14 12 12 11 11 8 7 5 4 4 5 3 5 4 1 3 1 5 3 1 3 5 6 4 1 4 3 4 5 5 4 2 4 5 4 0 1 2 2 2 3 2 3 6 2 0 2 1 4 3 2 1 5 7 8 6 8 6 6 7 9 9 10 8 10 11 7 5 5 10 15
17 18 17 16 15 16 17 17 16 17 16 15 15 14 13 14 14 14 13 11 11 9 9 7 6 4 3 4 3 3 3 3 3 8 4 1 4 5 5 6 4 2 3 3 2 2 3 1 6 7 1 1 3 1 2 2 3 0 3 5 5 1 1 3 3 4 5 2 2 5 6 6 2 2 6 7 7 6 13 10 9 13 16 15 10 10 13 16
16 16 17 16 15 15 15 15 15 16 16 16 15 15 14 13 14 14 13 13 11 9 8 7 5 4 3 3 2 2 2 4 5 2 2 3 5 5 5 4 0 4 3 2 1 2 3 6 4 3 3 2 2 1 3 2 3 3 3 5 0 2 3 2 6 4 2 2 2 4 4 5 6 4 6 3 8 14 14 14 13 15 17 14 14 13 14 17
14 15 16 17 17 16 16 16 16 16 16 17 16 15 14 14 15 13 13 14 11 10 7 7 5 4 2 2 1 2 2 4 2 1 4 4 5 5 3 1 4 4 2 5 5 4 2 4 4 2 1 3 1 2 2 2 3 2 4 3 2 3 5 2 3 3 3 1 2 3 6 6 6 2 9 9 12 14 8 12 15 15 10 11 15 16 14 17
12 13 15 16 16 17 17 16 17 17 17 17 17 16 15 15 15 16 13 13 12 10 6 6 4 3 2 1 1 1 2 2 1 2 3 6 4 3 2 5 5 5 7 4 2 4 3 2 4 4 3 3 5 4 4 1 1 4 3 3 2 2 5 2 2 2 5 4 6 5 5 4 7 5 9 12 18 13 8 6 1 6 3 7 13 15 16 17
11 12 13 14 15 16 16 17 17 18 17 17 17 17 16 16 15 16 15 12 13 10 8 5 3 3 2 1 1 1 4 6 2 2 3 5 3 1 4 5 4 2 3 3 1 3 2 2 4 1 3 1 1 2 2 0 1 3 4 2 3 3 6 2 1 2 5 4 6 1 2 6 4 10 3 12 21 18 4 4 2 1 1 8 13 17 19 20
12 12 13 13 14 15 16 17 17 18 18 17 17 17 17 16 15 15 15 11 12 11 7 4 3 4 3 1 2 2 1 6 4 2 4 2 2 5 3 4 2 3 2 1 2 2 2 2 1 3 3 3 3 6 2 3 4 5 6 3 0 1 6 1 1 3 3 6 1 2 5 9 8 6 3 17 18 13 10 5 3 2 4 8 12 15 16 16
10 11 13 14 14 14 16 16 17 18 18 18 18 17 17 17 16 16 15 14 12 11 6 2 3 1 5 2 2 2 6 2 2 3 4 1 3 2 3 2 2 3 3 1 2 2 3 1 1 6 3 4 2 4 2 3 5 7 2 2 1 4 2 1 3 5 4 2 3 5 11 5 2 3 13 24 18 11 10 7 6 5 7 10 13 15 16 16
9 11 13 13 14 15 16 16 16 17 18 18 19 18 17 17 16 15 17 15 13 10 6 3 1 3 2 3 2 4 0 1 1 2 2 1 0 2 7 4 2 6 3 2 1 2 1 3 1 5 1 4 2 1 2 4 2 1 1 3 6 3 3 1 6 2 1 4 4 8 11 5 3 3 12 2 3 3 6 7 5 8 11 11 10 12 14 15
10 12 13 13 13 14 15 16 17 18 18 19 18 19 18 16 17 16 16 15 13 9 6 4 2 1 1 1 4 5 1 2 2 2 2 1 2 3 3 3 2 1 4 2 1 2 2 7 4 4 1 1 5 2 3 1 2 2 3 4 7 7 6 6 3 5 1 5 5 8 12 2 2 3 16 4 3 4 7 7 8 9 11 10 12 11 11 12
9 12 13 13 13 14 14 15 17 17 18 18 19 19 19 16 15 16 16 15 12 7 4 0 3 3 2 2 6 3 1 2 1 1 2 1 5 2 1 2 2 3 3 3 1 1 2 5 5 2 2 3 4 2 3 2 2 1 2 6 2 4 7 6 7 2 4 4 3 3 9 10 8 12 21 3 4 4 4 7 8 10 10 10 10 10 10 12
8 10 12 11 12 14 15 16 16 17 18 18 19 19 19 17 16 15 15 14 7 6 1 1 1 1 2 4 4 2 1 2 3 5 7 6 6 2 3 2 2 2 3 2 4 2 2 4 2 3 0 2 1 3 4 1 2 1 2 2 7 5 8 4 2 2 5 1 3 2 11 8 16 21 11 6 5 4 4 7 9 8 8 9 9 10 10 10
8 9 11 11 11 12 14 15 16 17 18 19 19 20 19 17 16 15 14 11 8 4 1 1 1 2 3 5 2 1 2 1 1 1 3 1 1 3 2 3 3 4 4 8 5 3 2 0 1 7 3 1 1 2 4 2 2 3 2 2 4 4 3 3 3 5 6 3 3 2 9 16 6 12 8 6 6 7 9 9 9 8 8 8 10 10 11 12
8 9 9 11 12 12 13 14 16 17 18 18 20 21 21 19 17 15 12 8 3 1 2 2 1 3 3 2 2 2 3 1 3 0 1 2 5 4 3 3 8 8 6 6 4 1 1 2 2 2 2 1 1 3 2 2 1 1 3 4 3 4 2 3 5 7 6 3 3 3 10 16 16 4 6 4 5 6 9 10 11 9 9 10 10 11 11 12
8 9 11 11 12 13 13 14 15 17 17 18 19 21 20 18 16 12 6 2 3 1 1 2 2 2 2 6 1 4 3 5 4 2 1 2 3 1 3 6 2 4 1 5 2 0 1 3 3 2 1 2 4 3 5 4 4 1 5 7 5 3 4 4 6 2 2 4 4 11 10 11 12 3 2 4 5 6 8 11 12 13 12 11 11 10 10 10
8 9 10 11 12 14 14 14 17 17 18 19 21 18 18 13 9 4 3 1 1 1 1 1 2 1 6 2 3 4 5 2 3 2 1 2 2 6 7 4 3 3 5 3 2 1 2 1 0 2 1 2 1 2 4 8 9 5 2 6 2 7 4 6 5 3 2 6 7 11 9 17 18 11 5 5 7 6 9 14 15 14 12 11 10 10 10 12
8 9 10 10 14 14 13 15 16 18 19 21 21 17 16 12 2 1 2 1 0 2 2 0 2 2 6 4 5 3 4 2 1 3 2 2 1 5 2 3 1 3 4 3 0 4 2 2 1 4 1 3 4 6 6 10 6 4 4 5 7 5 9 11 6 3 4 2 9 9 14 20 21 20 18 9 10 9 14 16 19 17 13 12 11 11 12 12
8 9 10 13 14 12 14 15 16 18 19 22 19 16 6 2 1 1 2 1 2 2 3 4 5 6 5 3 2 2 0 2 2 1 4 4 1 2 4 3 5 6 3 2 3 4 1 2 0 3 9 8 11 12 11 11 2 9 6 8 6 9 8 7 3 3 5 6 8 14 14 17 19 20 19 15 9 12 16 18 17 17 13 12 13 11 11 12
8 9 12 13 11 12 13 15 16 18 20 16 10 6 2 2 0 2 2 1 6 5 3 0 6 4 5 3 2 2 1 2 3 2 1 1 5 5 2 2 3 1 4 6 4 3 2 6 7 9 13 11 10 14 14 4 2 2 1 3 9 9 12 10 3 3 2 3 14 18 17 18 21 21 21 20 6 10 15 18 19 16 11 13 13 11 12 13
8 8 10 10 9 11 13 15 16 16 16 7 7 2 3 3 2 6 2 7 7 2 4 4 5 5 7 4 3 6 4 3 2 3 3 3 3 6 5 5 6 7 6 2 2 2 2 7 12 20 10 2 8 7 2 1 1 7 6 6 10 6 13 2 1 5 3 3 7 8 11 17 20 19 20 20 10 20 23 19 20 20 15 14 14 12 12 14
7 8 8 10 10 12 14 15 16 16 10 2 2 3 1 1 4 2 2 8 1 2 1 4 2 7 1 3 1 2 3 2 4 6 3 5 3 7 4 8 6 10 4 5 3 4 6 10 17 4 4 6 5 4 5 9 6 4 7 5 5 11 6 9 2 4 3 4 11 8 13 17 20 20 22 21 22 15 18 19 22 20 19 14 10 11 11 9
7 8 9 8 11 12 15 15 16 11 4 2 2 2 1 4 6 4 2 2 8 3 4 3 5 10 7 2 2 2 7 9 8 9 9 7 5 6 5 6 8 2 3 9 10 5 4 12 13 6 6 7 3 2 5 3 3 6 5 5 11 2 3 6 3 3 4 5 8 9 16 17 20 20 23 23 16 16 14 16 19 17 19 20 13 7 9 12
7 8 8 9 9 12 14 14 13 2 4 2 3 2 3 4 5 5 2 5 5 3 6 3 5 3 8 4 6 11 11 4 3 7 2 8 10 5 4 10 4 3 11 12 13 11 14 1 1 5 4 8 6 4 7 7 8 6 8 9 11 7 7 7 4 4 4 5 3 11 14 15 13 11 7 3 1 3 11 8 15 17 16 14 0 3 9 14
7 8 7 9 9 11 13 12 3 4 5 5 2 4 4 4 3 4 3 5 2 5 3 2 4 6 3 4 1 9 2 1 6 3 4 6 9 4 4 3 4 11 10 7 6 9 16 3 4 6 3 3 4 5 10 8 7 5 9 14 13 4 10 2 3 7 6 6 3 6 13 12 5 6 5 4 2 6 5 7 11 13 11 7 10 11 10 11
8 7 7 8 9 10 13 3 3 6 6 2 2 6 5 4 5 3 2 4 7 3 4 6 7 2 4 2 3 2 6 7 3 1 2 2 4 2 5 4 3 7 6 9 8 5 7 4 3 5 7 5 8 8 5 10 8 4 6 8 14 10 2 1 1 0 5 6 2 4 4 17 7 6 7 4 5 9 5 8 11 10 11 6 8 8 10 11
8 7 7 6 6 8 5 2 4 7 2 2 2 4 4 4 3 3 3 4 6 7 8 2 1 1 1 2 2 3 4 3 1 3 1 2 6 2 7 5 3 2 1 4 2 8 4 2 4 2 6 7 5 9 8 12 4 7 3 1 4 5 7 5 4 6 9 3 4 3 7 15 13 9 5 7 7 7 9 14 15 13 10 11 7 9 10 9
9 8 6 4 1 3 1 5 7 4 2 2 3 2 3 3 3 2 1 8 4 4 4 4 1 1 1 1 1 3 2 2 3 4 2 2 1 3 5 8 9 8 6 5 9 2 3 5 7 7 8 6 11 7 8 12 8 1 1 2 4 4 3 5 5 5 3 6 8 8 8 8 12 6 9 5 10 10 15 17 16 16 9 7 7 8 10 10
9 8 6 3 6 4 1 1 4 4 1 2 2 2 2 1 3 2 1 8 1 2 3 4 0 0 3 2 5 1 2 1 2 3 2 1 3 2 8 5 2 3 1 5 9 2 2 2 6 8 8 10 4 3 3 10 12 3 5 7 7 5 5 2 3 3 5 1 10 9 11 8 21 11 7 0 5 11 13 15 17 15 10 5 6 6 7 7
10 8 6 8 4 1 1 2 3 2 1 1 1 1 1 1 1 3 3 9 1 3 3 2 5 5 4 9 5 3 4 1 2 2 1 3 3 1 4 2 3 4 5 1 5 2 1 1 3 3 9 1 6 5 2 4 4 9 5 5 3 3 2 1 1 3 3 10 11 11 16 13 17 4 11 11 9 12 12 11 10 9 6 7 6 6 6 7
11 10 8 9 3 0 1 2 2 3 2 2 2 1 2 1 3 4 14 3 4 2 3 3 6 6 9 11 7 3 1 2 3 5 5 2 4 1 2 2 2 1 0 2 7 5 3 3 2 4 4 5 3 7 5 2 3 6 3 3 1 3 3 2 1 3 5 10 3 6 14 18 13 5 6 8 6 13 13 13 12 10 10 8 6 6 7 6
13 12 11 9 3 4 3 1 4 5 3 4 3 1 3 5 2 13 5 5 4 5 8 6 1 5 8 2 4 7 8 2 4 8 9 7 8 10 12 11 8 3 5 7 6 4 5 10 3 3 3 5 5 5 3 3 2 2 5 3 2 3 2 3 3 4 8 8 2 2 5 5 22 22 2 6 4 9 10 7 8 10 9 8 6 5 5 4
14 13 14 7 6 2 3 3 5 4 4 2 1 1 4 3 14 8 0 6 4 6 5 4 5 8 3 5 6 3 5 6 4 4 3 1 4 9 4 5 4 2 6 4 7 1 4 5 3 7 2 7 9 10 5 4 10 9 9 7 4 6 4 6 7 1 4 3 3 4 1 13 16 12 15 14 14 12 11 11 10 7 8 8 5 4 4 4
15 14 10 9 7 5 4 6 4 5 1 2 2 4 3 5 12 8 14 11 9 5 5 3 3 4 5 8 2 7 5 4 7 5 6 4 4 7 9 11 6 6 2 2 5 5 5 5 9 13 8 12 15 16 5 2 12 11 5 8 7 4 3 5 5 7 8 6 2 6 2 7 1 4 8 18 20 14 10 10 10 5 5 3 3 2 2 5
17 15 12 8 8 3 7 6 6 5 2 3 3 6 8 19 8 4 7 5 1 2 3 2 4 5 5 3 1 5 4 2 4 7 8 7 8 8 10 13 13 4 2 2 4 2 12 11 3 6 4 12 13 5 6 9 4 5 1 3 1 10 5 9 2 3 3 6 7 7 9 3 8 5 1 3 2 10 11 11 8 9 10 5 4 6 7 7
15 12 11 7 10 9 8 6 5 4 6 4 7 6 15 13 4 4 4 5 3 6 6 3 3 6 4 2 3 6 2 5 4 5 4 10 6 7 2 2 11 20 11 10 5 4 3 8 5 2 1 3 2 2 2 2 9 7 6 9 6 6 6 3 2 3 2 1 15 3 10 13 9 13 11 5 8 11 11 14 11 12 11 7 8 8 8 6
9 6 9 7 11 11 10 10 6 5 3 8 9 12 16 7 6 5 1 5 2 9 6 9 8 8 6 8 7 9 5 2 4 7 7 5 7 11 5 7 3 14 19 11 4 5 7 3 1 5 8 1 2 4 2 4 1 9 7 6 5 1 4 2 6 1 2 7 12 1 17 19 12 11 6 9 11 8 12 14 13 14 11 10 13 10 8 8
8 6 9 11 13 14 13 10 10 5 4 5 10 20 4 7 2 2 3 3 2 2 5 9 3 8 6 6 6 7 7 10 7 7 6 10 7 8 10 4 10 15 20 15 8 3 5 8 4 3 5 3 1 1 1 2 5 3 1 4 5 5 4 2 1 5 5 8 7 10 18 16 20 13 6 8 14 14 15 13 11 11 11 12 12 13 9 7
7 4 5 10 14 17 12 12 8 8 7 8 14 15 5 8 5 3 5 1 1 3 7 7 5 6 6 6 2 2 10 9 8 9 5 7 8 7 12 10 7 15 17 16 8 4 1 9 2 2 1 2 1 4 7 8 3 3 1 2 3 4 3 7 7 1 3 10 5 21 19 21 6 5 6 9 14 13 13 10 12 14 14 12 11 10 9 9
7 2 7 9 17 15 15 13 9 8 7 15 15 14 2 4 4 3 3 5 3 6 7 10 6 6 5 6 6 6 8 7 9 8 8 4 9 3 7 7 5 9 10 15 11 1 4 4 8 4 5 1 5 10 10 13 12 6 5 7 3 3 3 3 3 3 5 6 8 11 15 19 1 7 9 5 11 12 12 13 13 13 12 12 12 9 10 11
4 4 1 12 15 16 14 10 10 14 13 7 9 14 8 6 0 2 2 5 4 3 3 3 5 10 9 3 9 2 3 6 5 7 8 5 8 4 10 11 7 5 6 3 6 1 2 4 13 5 3 9 6 7 13 1 4 9 15 14 17 11 6 5 10 4 2 6 8 5 15 17 9 8 7 1 3 7 10 12 12 12 14 11 11 12 12 9
7 6 5 11 18 22 17 13 7 7 4 11 15 9 9 6 8 10 1 2 3 6 4 1 5 7 6 10 3 6 5 5 7 6 6 9 7 11 2 13 6 15 13 9 14 10 5 1 1 6 11 7 12 3 1 4 2 2 5 6 6 6 6 6 10 5 2 8 5 5 5 21 3 10 3 3 4 6 8 9 8 9 11 12 12 12 11 11
6 7 3 19 17 21 13 9 8 10 11 12 2 5 5 2 4 2 6 7 5 3 1 4 8 8 8 4 2 3 8 8 9 10 3 6 12 16 3 9 9 6 3 1 5 1 3 3 5 10 5 4 4 3 3 2 5 1 8 3 5 13 12 11 7 1 5 2 7 5 5 17 6 9 7 4 5 6 5 9 11 9 9 9 9 9 9 9
3 4 0 7 19 16 15 11 9 14 13 6 10 14 5 6 5 6 8 6 6 4 10 9 4 9 8 2 2 7 5 7 7 9 4 7 7 2 7 8 12 8 10 8 8 9 4 5 8 4 3 7 8 3 3 1 3 7 6 9 10 7 9 3 4 1 5 19 19 4 12 16 6 6 5 5 4 5 4 3 4 8 7 8 8 7 7 8
3 2 3 4 10 12 16 11 14 12 14 15 15 18 12 7 10 18 13 10 5 8 3 8 12 3 7 6 8 8 6 17 9 7 13 6 6 4 4 4 13 10 6 2 1 9 7 6 10 9 14 14 13 17 14 6 8 5 4 8 13 15 15 6 8 7 10 19 11 9 17 22 18 13 8 6 4 4 2 4 4 6 6 7 7 7 8 8
5 5 4 4 9 8 8 3 1 8 13 14 13 14 11 12 7 9 12 14 15 8 8 1 3 4 8 4 10 13 16 12 15 1 1 4 6 1 1 3 11 11 0 4 4 6 2 3 13 15 16 17 19 17 3 10 6 7 8 12 16 17 19 16 8 11 18 6 10 18 23 20 19 24 24 21 10 9 7 8 8 8 10 9 7 7 7 10
0 9 6 5 2 12 8 7 6 5 10 12 9 7 18 19 14 6 12 10 13 16 6 6 5 5 3 8 12 14 16 14 10 12 17 19 1 2 1 1 4 6 3 2 3 4 1 5 12 20 22 20 19 20 19 8 10 7 8 12 15 15 17 17 16 23 8 6 15 16 28 21 16 21 27 28 26 16 18 17 9 8 9 10 11 10 13 11
8 4 10 11 12 10 14 14 15 15 7 9 9 7 16 15 15 14 6 15 2 7 9 3 14 17 18 18 16 12 13 17 7 10 15 13 10 4 2 1 4 4 5 2 1 4 4 10 11 12 18 20 20 26 26 22 15 13 11 11 14 17 15 21 26 22 7 11 20 26 27 19 16 22 27 29 26 15 10 17 18 13 7 9 11 13 15 15
8 3 3 4 12 8 20 23 24 24 18 19 10 16 17 18 19 17 13 4 9 7 16 12 16 24 26 26 17 15 12 8 10 16 11 11 15 9 4 2 4 2 5 2 0 2 1 10 12 16 19 18 22 24 24 24 21 17 17 15 14 16 23 23 22 18 21 27 23 19 21 25 22 29 28 29 18 12 12 13 14 8 8 9 10 14 15 12
6 5 4 5 10 5 11 15 16 18 17 19 14 15 15 20 21 14 13 13 11 13 12 20 20 20 23 22 20 19 22 22 19 17 8 15 12 7 11 12 2 3 0 4 3 2 7 12 15 14 13 16 20 20 21 22 20 21 17 16 17 25 26 19 20 25 27 22 24 26 23 22 22 28 28 20 17 22 19 22 25 24 20 17 15 16 15 14
6 8 6 7 7 7 8 11 12 15 14 14 17 16 17 21 20 18 22 16 22 15 13 27 25 27 19 18 19 23 20 23 24 27 22 15 16 13 11 2 11 4 3 3 2 2 7 10 8 8 11 13 16 23 27 22 18 18 17 18 26 26 22 25 26 23 21 20 22 15 14 18 25 31 23 21 26 24 25 25 23 18 15 15 14 16 17 14
5 3 3 5 8 5 10 5 11 8 16 13 17 20 17 22 22 20 17 12 17 21 20 19 22 18 15 15 20 23 28 27 27 26 23 22 14 5 10 7 11 12 7 9 6 5 8 6 9 11 13 14 17 18 17 13 13 11 15 24 31 31 27 27 28 26 21 22 21 16 19 22 22 17 17 23 25 22 20 19 19 28 16 8 15 19 19 17
Wind_Direction
12 12 10 7 7 6 5 5 3 1 360 358 356 355 354 350 350 351 359 349 343 346 334 330 334 325 325 317 316 330 316 239 180 201 222 261 107 88 292 300 308 319 138 190 130 165 173 201 191 132 192 226 16 220 108 89 24 227 219 247 239 284 224 170 206 196 27 286 160 182 195 211 213 158 168 175 203 231 153 215 213 252 245 233 95 111 155 143
12 10 7 5 4 3 1 0 0 357 357 353 352 351 352 348 348 342 353 354 347 341 338 326 324 334 324 319 312 352 327 277 257 257 250 92 120 306 332 311 317 5 180 225 191 201 206 197 165 187 178 191 350 18 203 126 262 220 165 233 284 179 354 187 226 221 202 211 73 184 194 218 233 154 158 211 211 197 227 226 216 232 233 198 173 146 160 160
10 8 5 3 2 360 357 356 355 354 353 350 347 349 348 347 347 343 341 348 350 342 331 326 318 317 333 319 336 330 305 258 278 252 133 45 7 328 327 320 312 178 228 290 275 252 253 201 156 164 78 187 28 147 281 70 262 149 239 247 244 186 289 234 216 222 223 77 146 179 192 217 214 193 117 222 238 181 227 219 194 227 233 207 173 158 164 173
9 4 3 1 359 357 354 352 352 351 349 348 344 343 342 339 344 343 339 342 343 348 326 324 317 320 324 350 17 274 225 301 263 118 72 4 326 329 322 315 203 187 178 57 108 121 98 103 127 204 141 230 104 285 251 77 266 122 231 239 232 110 239 195 200 224 192 257 258 191 113 213 222 193 181 214 249 241 234 227 215 216 225 206 163 163 169 178
7 3 4 1 358 355 351 349 350 348 346 344 344 340 338 339 340 336 337 342 339 343 334 315 318 327 328 6 21 218 297 279 223 80 62 341 338 324 329 104 140 162 257 124 127 94 156 138 143 70 238 179 166 226 243 90 10 175 263 10 79 131 244 141 193 114 165 18 208 156 179 214 91 169 218 214 234 254 247 221 219 240 249 162 164 173 174 183
4 4 4 1 356 354 351 349 348 346 345 343 341 339 335 336 335 335 330 340 335 337 336 317 311 319 319 19 189 235 213 271 91 125 360 348 332 350 78 115 127 140 147 136 205 160 178 105 193 176 182 203 183 221 97 62 22 243 184 234 220 226 263 71 190 168 178 177 197 191 221 78 194 224 215 222 230 244 67 65 269 252 268 169 160 161 179 187
1 359 0 360 356 354 351 348 346 345 343 340 338 337 333 333 332 332 327 332 336 334 336 316 309 294 285 153 161 213 227 298 152 95 9 338 347 131 106 123 150 199 226 229 206 223 55 119 213 179 157 91 184 240 107 199 214 265 284 147 220 189 233 107 96 115 209 213 215 60 51 227 167 250 176 231 237 242 91 98 71 33 241 152 163 177 185 189
359 357 357 357 355 351 350 348 346 343 340 338 335 333 330 330 333 328 322 326 329 332 330 326 305 303 222 170 174 180 139 257 118 57 344 359 52 123 100 109 144 160 136 285 163 142 190 21 260 148 230 246 134 189 114 209 185 222 247 184 220 236 249 251 269 227 217 237 45 229 228 238 216 265 33 249 245 238 224 150 141 132 165 180 189 187 191 194
357 355 356 355 352 349 347 347 345 340 337 336 333 329 328 330 329 329 320 323 327 320 315 331 282 331 290 229 195 245 236 65 70 29 338 109 62 116 287 209 48 206 120 159 309 136 228 154 149 208 294 196 164 194 171 250 224 206 273 153 162 239 259 252 255 229 219 242 202 229 244 231 140 343 260 256 257 239 213 177 184 182 191 195 202 195 192 196
351 354 356 354 350 348 346 345 343 339 336 333 331 329 325 327 327 325 320 320 322 321 294 246 233 268 252 142 144 251 88 273 13 1 357 175 233 126 68 38 40 131 176 65 210 190 233 176 258 145 163 70 180 188 82 224 339 325 248 273 268 277 312 171 251 178 187 260 185 239 262 258 93 191 278 157 41 97 154 191 183 202 218 210 206 202 202 201
347 350 352 350 348 346 346 342 340 338 336 333 328 327 323 325 326 325 316 317 318 299 281 234 203 150 135 224 209 238 91 197 351 17 53 299 59 37 28 2 3 189 131 102 112 315 35 134 130 110 288 57 168 158 236 42 19 37 316 278 250 257 248 235 252 256 231 254 185 247 264 320 150 232 247 184 129 142 167 192 199 211 223 219 211 206 206 210
344 345 346 347 343 343 343 340 338 336 335 330 327 324 320 323 324 321 312 313 310 301 285 63 149 147 132 263 226 246 359 45 44 77 54 348 64 31 329 345 262 224 250 176 152 206 302 127 163 145 293 147 219 87 192 121 352 30 292 284 262 268 273 188 229 193 182 239 165 201 261 223 190 231 238 170 137 145 185 204 206 216 222 221 214 212 208 210
335 340 341 339 339 337 339 338 336 335 333 330 325 321 319 319 320 315 309 314 301 296 309 118 140 255 152 245 233 50 240 133 95 88 75 65 111 101 74 46 66 38 294 200 139 137 129 136 225 126 57 218 115 281 99 221 47 266 152 310 294 254 262 132 113 121 197 135 158 221 289 253 199 223 234 117 149 153 202 224 217 218 216 218 215 216 216 209
332 332 336 333 331 331 332 334 335 333 331 328 323 320 316 318 315 313 306 297 296 256 224 203 269 201 185 262 109 298 134 172 257 103 42 304 197 66 91 65 62 59 21 80 71 86 100 297 127 93 82 305 171 133 175 92 205 256 107 237 267 289 245 140 183 148 203 84 193 275 263 282 238 201 221 137 161 184 230 227 228 218 214 217 217 217 217 212
325 329 328 328 332 329 330 329 331 331 328 325 321 317 316 317 315 311 309 303 245 231 188 269 288 171 217 268 87 73 125 208 222 190 0 221 135 113 83 67 52 44 56 75 105 71 117 136 150 171 125 12 96 189 225 211 159 204 263 229 171 231 249 131 154 185 215 117 209 214 264 265 279 252 119 117 171 209 239 243 235 223 218 216 217 219 218 216
319 322 327 326 327 331 329 328 329 328 327 323 319 314 310 315 314 312 327 12 54 83 219 218 155 285 281 261 114 118 205 209 195 79 59 296 231 114 111 95 113 66 67 65 61 162 54 83 48 40 139 151 219 239 273 279 209 191 222 272 264 199 263 299 158 201 347 127 193 209 259 297 287 110 98 127 164 198 242 250 243 233 226 221 219 217 215 211
316 314 319 323 326 330 329 326 331 330 328 325 321 310 306 311 313 354 91 79 97 169 247 268 122 177 267 79 115 230 209 172 36 148 104 32 294 140 133 100 65 84 73 108 51 203 31 210 238 224 46 268 19 203 269 256 258 220 146 256 261 263 293 280 120 155 144 213 224 217 241 248 265 264 164 163 180 195 237 253 250 238 228 217 219 215 208 209
310 316 317 316 327 329 324 325 329 332 331 328 321 306 298 310 334 210 159 155 79 144 103 196 207 258 230 69 220 195 27 127 148 97 25 11 135 132 94 131 69 122 132 127 28 236 327 207 263 260 181 175 195 197 208 253 254 261 204 242 255 214 221 263 275 127 166 146 246 232 232 259 265 271 272 234 176 218 250 255 259 252 230 222 219 217 210 210
309 313 315 317 325 326 326 326 331 332 331 329 311 296 268 192 86 125 76 186 182 217 215 177 185 194 270 208 70 78 141 58 97 236 157 158 65 84 84 58 128 147 164 233 159 192 96 148 262 247 240 199 206 208 214 238 236 264 256 265 274 274 255 250 201 108 218 213 236 238 240 255 263 270 272 269 179 225 247 257 261 256 242 234 228 214 205 212
301 313 317 322 322 320 323 324 331 332 335 337 346 332 199 240 205 190 132 171 232 251 345 210 222 2 326 203 198 59 164 211 163 216 86 271 144 161 87 177 85 306 166 223 137 160 3 210 224 228 236 216 203 212 232 293 333 29 169 236 253 256 266 270 133 113 160 259 247 252 253 259 265 268 273 272 214 245 246 253 256 254 240 235 230 214 205 214
292 302 312 315 311 316 318 325 329 327 333 328 307 294 263 148 236 285 337 247 231 221 252 228 223 250 273 70 134 150 158 201 295 163 169 115 299 178 183 169 190 222 206 35 126 96 217 233 241 239 241 143 223 209 174 167 194 236 255 246 261 220 260 271 92 125 169 223 269 240 259 259 262 266 267 271 227 245 257 256 260 260 248 241 228 215 206 221
280 290 304 307 311 311 317 322 327 324 328 285 271 294 306 9 349 345 4 276 113 193 253 275 45 271 159 218 65 272 63 301 200 186 144 193 137 207 151 198 176 227 93 133 119 189 202 225 243 250 91 94 72 168 196 214 204 193 237 247 274 261 280 277 66 129 156 201 264 270 277 271 266 263 261 258 253 244 248 250 260 266 269 257 225 212 213 205
276 282 295 311 307 309 313 319 319 340 342 349 330 287 28 345 318 310 285 298 269 189 222 179 219 241 254 109 236 201 213 205 237 162 178 177 107 243 142 191 210 180 135 186 200 184 246 242 260 95 130 131 87 134 179 186 213 208 197 224 237 261 330 280 111 98 179 221 298 309 292 278 265 254 253 255 257 262 254 256 256 257 257 258 255 206 193 217
266 277 290 299 307 302 311 316 319 54 25 31 304 358 353 325 323 297 226 255 299 272 203 211 230 231 229 194 175 181 201 243 150 211 110 176 176 131 176 211 169 170 230 193 211 210 228 46 55 106 135 201 194 157 186 198 224 209 224 230 253 237 228 227 308 299 199 238 278 281 267 259 232 242 254 244 6 278 269 261 262 261 251 254 82 188 208 227
256 265 276 288 292 302 306 318 6 351 304 269 115 19 350 333 330 326 283 275 194 257 88 247 171 239 185 81 29 189 277 12 232 38 178 211 145 137 211 64 208 231 228 156 206 243 254 191 143 97 135 165 153 196 211 203 239 214 225 230 241 261 261 200 21 338 292 279 144 342 326 285 165 193 230 265 286 262 232 224 241 252 258 229 234 226 223 231
243 258 265 276 289 314 303 270 31 335 317 17 11 334 321 323 324 312 273 263 263 147 44 230 148 207 114 138 80 212 87 248 59 124 151 296 354 208 100 195 192 244 137 158 197 233 257 47 208 177 151 184 210 232 195 189 226 219 245 205 234 245 270 21 260 70 264 265 77 306 349 291 141 194 181 203 233 257 238 221 246 223 255 210 214 198 217 217
233 242 258 271 305 341 336 32 333 314 256 89 16 326 314 306 338 293 270 238 265 177 171 14 282 126 355 67 158 133 218 195 72 104 186 309 197 301 213 189 102 58 193 138 63 230 130 115 107 159 172 190 217 241 193 183 194 238 62 113 135 188 207 208 210 229 269 34 273 175 233 276 279 218 168 191 210 241 267 270 271 266 231 244 207 200 214 207
225 234 240 263 23 38 3 305 330 337 10 326 300 303 314 307 271 246 227 290 262 102 138 196 256 346 17 117 337 232 340 13 165 175 343 323 309 133 242 208 202 171 175 171 233 66 153 143 177 155 193 191 223 228 116 182 193 271 72 14 107 122 168 162 210 255 295 336 284 184 202 271 259 183 196 185 217 228 251 253 257 261 241 222 232 212 209 205
221 230 228 164 106 94 44 298 307 290 104 282 280 297 349 278 269 290 167 256 116 84 339 97 66 219 90 120 207 106 241 67 270 62 287 81 357 309 207 230 167 107 69 240 244 110 305 181 198 181 160 215 163 36 206 176 211 103 129 88 86 85 72 184 226 253 264 289 257 189 175 244 278 146 166 305 201 230 236 242 245 249 254 224 224 210 204 197
215 220 200 142 117 176 138 130 211 114 196 176 226 260 171 255 184 215 205 246 44 224 109 90 177 184 153 156 230 125 220 187 56 129 61 181 107 162 44 343 135 136 212 162 270 338 83 228 351 211 215 209 101 60 65 14 48 126 159 113 92 82 131 118 87 264 287 243 243 205 182 206 279 182 158 155 193 201 222 235 251 262 264 244 209 202 189 192
207 209 185 156 229 136 185 265 123 175 184 217 217 223 205 155 229 199 237 215 2 156 75 185 183 106 157 169 205 149 239 157 177 172 144 177 155 75 175 146 108 151 222 260 260 211 156 117 218 238 63 99 97 93 55 58 118 161 151 171 193 193 145 172 192 185 235 264 116 199 193 197 235 254 157 163 136 190 199 222 231 239 239 233 191 196 189 182
203 203 176 177 180 152 209 274 141 172 198 179 222 219 196 223 153 225 231 60 264 179 185 177 68 188 203 316 3 167 176 149 191 188 181 183 170 180 196 198 157 174 244 207 241 89 236 206 151 89 262 153 164 117 90 109 177 207 158 155 216 260 9 240 155 220 197 248 128 114 138 255 234 245 135 190 201 222 235 225 215 223 234 222 192 183 161 159
198 199 176 175 130 198 234 103 141 161 160 210 144 231 201 181 250 162 261 158 250 125 215 44 169 178 177 133 232 117 359 201 125 204 96 354 196 231 284 277 216 233 259 131 225 175 256 65 154 186 104 228 179 191 160 213 192 186 188 182 192 252 222 260 245 186 292 236 134 112 148 248 269 284 228 219 210 216 214 232 245 234 226 220 169 156 148 166
197 188 183 183 183 185 141 149 153 155 130 358 193 95 24 239 239 91 192 198 211 19 43 71 51 46 161 197 167 162 209 216 155 187 202 176 188 225 219 226 193 238 202 149 209 181 272 245 196 147 228 155 194 214 196 120 153 197 178 177 221 187 201 248 258 260 272 301 134 233 107 242 13 208 188 210 216 209 205 219 234 255 283 33 36 40 186 197
196 193 188 177 192 153 140 154 156 172 104 165 168 181 195 236 235 210 219 193 5 19 69 345 144 145 236 300 261 255 259 201 172 131 195 176 207 210 193 200 201 160 95 210 217 98 227 257 70 167 357 146 189 192 86 106 104 159 184 27 276 228 188 247 310 299 316 320 285 156 221 240 225 88 189 59 54 225 215 225 211 232 239 207 236 223 215 211
194 202 174 187 180 174 143 152 148 134 125 156 146 206 224 223 239 134 248 132 139 160 145 71 114 196 222 227 246 217 163 235 154 177 222 214 234 213 106 206 181 186 167 198 144 213 50 251 112 138 73 203 64 17 190 188 216 160 143 207 203 14 199 258 59 113 83 198 264 177 261 258 259 244 152 194 166 209 208 224 212 223 227 186 235 236 223 220
205 162 201 168 180 149 146 148 155 144 192 197 181 221 229 242 223 152 247 186 188 127 142 203 201 182 190 221 199 178 187 125 203 181 226 126 269 212 203 241 172 186 211 180 243 227 228 246 142 162 206 69 0 326 1 19 322 111 221 203 83 0 355 178 249 152 225 248 271 354 270 288 281 291 124 163 201 191 216 222 213 223 213 204 232 233 220 221
200 203 218 195 170 148 148 149 140 123 92 186 226 235 70 237 159 181 79 106 60 224 195 209 261 176 219 212 207 158 181 197 155 157 245 167 265 137 165 194 189 194 207 217 213 253 133 275 182 357 40 69 25 229 157 62 11 317 355 332 193 190 191 169 53 248 241 238 270 263 274 272 258 257 130 170 199 214 223 222 215 228 222 223 233 238 231 231
201 165 242 195 147 146 145 144 140 135 158 199 220 250 230 243 78 185 215 158 160 151 215 227 238 206 205 210 114 64 151 197 148 194 206 187 233 167 181 173 211 212 208 193 227 219 216 228 231 336 59 90 156 183 209 180 188 113 248 218 350 321 199 164 204 246 225 266 282 274 284 269 284 196 164 204 191 204 210 211 214 216 215 214 223 224 217 219
171 181 246 130 149 140 146 141 140 156 171 203 217 233 86 273 237 252 238 190 249 194 226 232 218 260 196 234 142 190 212 233 171 204 208 170 225 121 187 194 179 191 205 197 197 108 222 93 254 86 288 148 208 191 216 179 176 192 213 204 170 210 355 339 338 202 220 246 234 270 278 272 4 125 137 207 186 203 194 208 217 217 218 220 222 218 222 227
190 217 260 152 143 136 132 140 165 180 196 245 256 243 246 256 7 273 246 188 247 316 233 232 170 215 226 142 244 191 186 206 198 214 203 236 198 247 191 184 175 107 107 61 244 216 152 169 228 149 188 218 257 166 218 8 213 188 180 192 187 160 189 193 247 117 232 212 236 219 254 269 270 98 94 114 185 188 199 205 210 207 219 220 225 224 223 226
172 219 186 155 147 143 144 165 201 193 207 205 220 207 233 223 258 240 250 83 187 259 21 290 266 257 244 227 230 155 192 210 214 230 222 235 183 226 145 191 167 144 142 180 200 204 186 125 259 216 224 222 244 148 85 134 328 267 238 252 189 221 167 190 237 202 47 249 280 256 302 268 180 52 116 179 180 189 191 203 206 200 214 215 215 218 219 216
197 221 79 155 168 154 156 193 176 188 210 227 341 306 225 289 236 303 215 199 235 155 349 271 246 247 245 248 60 210 203 240 172 213 165 218 244 221 126 176 115 171 45 75 48 325 92 188 201 246 297 294 64 70 90 175 169 130 237 241 171 211 197 208 231 81 235 180 229 205 212 265 281 84 283 193 187 162 198 180 189 203 218 218 216 214 218 219
208 132 227 195 177 165 167 182 189 213 220 243 213 238 206 234 233 248 224 185 186 173 211 222 320 211 259 124 190 250 157 260 220 223 257 227 265 42 156 159 155 182 186 195 191 154 161 207 214 220 251 279 253 129 151 36 188 220 204 191 207 212 208 246 35 78 255 239 237 183 243 256 266 131 238 185 132 235 204 244 250 215 218 220 221 224 221 225
118 39 47 206 217 193 191 191 201 192 210 216 214 226 228 221 230 236 231 221 191 215 181 225 230 114 216 188 227 238 202 220 270 213 234 223 246 70 333 182 190 204 218 345 84 173 198 165 178 203 218 229 232 232 229 178 204 205 248 186 195 203 202 166 233 209 236 244 217 226 253 250 275 278 231 167 205 225 232 246 242 254 243 229 225 224 223 216
167 240 153 175 213 239 266 334 281 203 205 216 234 229 224 239 255 247 227 244 224 218 218 201 7 177 232 174 228 233 241 225 227 307 107 247 244 33 232 286 206 209 96 78 111 151 210 219 197 211 218 225 234 249 291 99 112 192 198 184 199 206 206 204 218 222 228 234 215 233 243 265 267 274 275 268 218 200 216 201 226 221 226 236 243 240 228 220
241 224 145 200 249 237 246 247 225 183 219 184 226 149 224 222 230 272 175 244 210 220 218 187 216 213 217 219 233 242 233 242 218 239 242 247 192 283 38 159 314 345 22 65 238 162 104 217 220 223 228 235 245 254 254 174 199 193 184 203 204 199 208 210 213 233 193 54 255 243 248 253 261 274 276 273 268 246 255 265 234 208 212 205 214 223 235 240
236 212 187 180 183 192 216 236 232 232 222 186 220 186 227 218 216 231 197 224 182 193 194 236 220 222 231 225 226 239 234 241 221 242 241 247 261 214 288 148 191 199 151 216 310 189 191 228 225 242 243 247 248 254 256 253 236 229 208 183 203 208 210 216 228 236 185 228 243 250 258 267 260 258 261 264 263 262 265 268 267 263 214 200 216 230 234 227
249 307 295 160 225 189 200 209 207 219 210 208 216 210 225 223 225 208 210 133 199 214 195 227 214 220 222 227 223 237 236 268 242 235 231 242 230 236 249 283 228 41 174 184 172 191 168 245 248 238 250 247 249 250 253 257 256 249 239 230 220 216 219 218 235 233 222 233 241 258 262 265 268 263 258 256 268 279 275 274 270 190 185 191 221 237 235 220
235 251 238 241 252 214 208 214 218 216 221 205 219 211 220 225 233 224 221 201 221 221 203 230 232 228 223 224 222 224 223 223 232 245 218 229 248 213 234 219 193 355 251 207 158 277 197 240 231 243 251 247 252 255 257 254 255 256 253 254 255 252 250 238 237 240 240 245 250 250 255 262 259 258 255 266 282 279 277 272 271 273 265 253 248 249 242 228
287 291 316 287 250 230 236 218 213 212 221 207 222 220 224 227 231 226 233 201 215 216 184 219 222 235 230 224 224 234 230 232 228 234 235 213 224 205 208 211 198 170 171 214 202 226 191 246 243 250 250 247 246 247 247 249 254 258 264 260 253 252 250 242 242 236 240 247 247 244 248 247 248 249 260 271 266 265 266 267 270 266 252 255 257 259 261 255
293 308 310 300 284 152 218 212 224 218 228 202 210 214 213 226 225 226 250 226 225 226 226 219 228 233 242 232 229 227 229 227 228 230 234 238 233 238 212 199 173 180 185 213 199 198 186 215 222 230 240 241 240 242 249 248 253 246 236 238 240 241 244 253 253 254 247 244 252 247 238 234 250 268 273 262 259 256 259 265 265 266 259 249 256 259 262 259